Powrót do katalogu

STARLINK-34354

AktywnyŁącznośćVLEO
NORAD 64314·PAYLOAD·🇺🇸 United States

Wystrzelony Jun 8, 2025 z Vandenberg Space Force Base

Loading…

Następne Przeloty (najbliższe 24 godziny)

TLE

ŚwieżeSource: CelesTrak SupGP

Epoka: Sep 14, 2026, 22:58 UTC

1 64314C 25123Z   26257.95743056  .00027099  00000+0  94271-3 0  2571
2 64314  70.0001  75.8422 0003501 273.0017 107.8765 15.29563468    19

Śledź STARLINK-34354 w czasie rzeczywistym z AllMySat

Download on the App Store